| time (UTC) | temp F | wind direction | speed knots | gust knots | rain 1hr in | rain 24hr in | rain mn in | humidity % | barometer mb |
| 20260507094549 | 26 | 165 | 0.9 | 2.6 | 0.00 | 0.00 | 0.00 | 77 | 1011.6 |
| 20260507094036 | 26 | 165 | 0.9 | 2.6 | 0.00 | 0.00 | 0.00 | 77 | 1011.7 |
| 20260507093536 | 26 | 167 | 0.9 | 4.3 | 0.00 | 0.00 | 0.00 | 77 | 1011.7 |
| 20260507093037 | 26 | 167 | 1.7 | 4.3 | 0.00 | 0.00 | 0.00 | 77 | 1011.8 |
| 20260507092535 | 26 | 169 | 1.7 | 3.5 | 0.00 | 0.00 | 0.00 | 77 | 1011.8 |
| 20260507092035 | 27 | 170 | 0.9 | 2.6 | 0.00 | 0.00 | 0.00 | 76 | 1011.7 |
| 20260507091535 | 27 | 170 | 0.9 | 3.5 | 0.00 | 0.00 | 0.00 | 77 | 1011.7 |
| 20260507091035 | 27 | 171 | 1.7 | 3.5 | 0.00 | 0.00 | 0.00 | 77 | 1011.7 |
| 20260507090533 | 26 | 175 | 0.9 | 3.5 | 0.00 | 0.00 | 0.00 | 77 | 1011.8 |
| 20260507090032 | 26 | 177 | 0.9 | 3.5 | 0.00 | 0.00 | 0.00 | 76 | 1011.7 |
| 20260507085531 | 26 | 182 | 0.9 | 2.6 | 0.00 | 0.00 | 0.00 | 76 | 1011.8 |
| 20260507085031 | 26 | 182 | 0.0 | 2.6 | 0.00 | 0.00 | 0.00 | 76 | 1011.8 |
| 20260507084536 | 26 | 182 | 0.9 | 2.6 | 0.00 | 0.00 | 0.00 | 76 | 1011.8 |
| 20260507084029 | 26 | 183 | 0.9 | 2.6 | 0.00 | 0.00 | 0.00 | 75 | 1011.8 |
| 20260507083528 | 27 | 184 | 0.9 | 2.6 | 0.00 | 0.00 | 0.00 | 75 | 1011.8 |
| 20260507083027 | 27 | 184 | 0.0 | 2.6 | 0.00 | 0.00 | 0.00 | 75 | 1011.9 |
| 20260507082527 | 27 | 184 | 0.0 | 2.6 | 0.00 | 0.00 | 0.00 | 74 | 1011.8 |
| 20260507082125 | 27 | 185 | 0.9 | 2.6 | 0.00 | 0.00 | 0.00 | 74 | 1011.8 |
| 20260507081526 | 27 | 187 | 0.0 | 2.6 | 0.00 | 0.00 | 0.00 | 74 | 1011.8 |
| 20260507081023 | 27 | 187 | 0.0 | 2.6 | 0.00 | 0.00 | 0.00 | 74 | 1011.8 |
| 20260507080523 | 27 | 188 | 0.0 | 2.6 | 0.00 | 0.00 | 0.00 | 73 | 1011.7 |
| 20260507080021 | 28 | 188 | 0.0 | 0.0 | 0.00 | 0.00 | 0.00 | 73 | 1011.6 |
| 20260507075520 | 28 | 189 | 0.0 | 0.0 | 0.00 | 0.00 | 0.00 | 73 | 1011.7 |
| 20260507075020 | 28 | 189 | 0.0 | 0.0 | 0.00 | 0.00 | 0.00 | 73 | 1011.7 |
| 20260507074520 | 28 | 189 | 0.0 | 0.0 | 0.00 | 0.00 | 0.00 | 73 | 1011.7 |
| 20260507074018 | 28 | 189 | 0.0 | 0.0 | 0.00 | 0.00 | 0.00 | 73 | 1011.7 |
| 20260507073521 | 28 | 189 | 0.0 | 0.0 | 0.00 | 0.00 | 0.00 | 72 | 1011.7 |
| 20260507073018 | 28 | 189 | 0.0 | 1.7 | 0.00 | 0.00 | 0.00 | 72 | 1011.8 |
| 20260507072517 | 28 | 188 | 0.0 | 1.7 | 0.00 | 0.00 | 0.00 | 72 | 1011.8 |
| 20260507072016 | 28 | 188 | 0.0 | 2.6 | 0.00 | 0.00 | 0.00 | 71 | 1011.8 |
| 20260507071518 | 28 | 188 | 0.0 | 2.6 | 0.00 | 0.00 | 0.00 | 71 | 1011.8 |
| 20260507071014 | 28 | 189 | 0.0 | 2.6 | 0.00 | 0.00 | 0.00 | 71 | 1011.8 |
| 20260507070514 | 29 | 190 | 0.0 | 0.0 | 0.00 | 0.00 | 0.00 | 71 | 1011.8 |
| 20260507070020 | 29 | 190 | 0.0 | 0.0 | 0.00 | 0.00 | 0.00 | 71 | 1011.9 |
| 20260507065513 | 29 | 190 | 0.0 | 0.9 | 0.00 | 0.00 | 0.00 | 71 | 1011.9 |
| 20260507065015 | 29 | 190 | 0.0 | 1.7 | 0.00 | 0.00 | 0.00 | 70 | 1012.0 |
| 20260507064514 | 29 | 190 | 0.9 | 1.7 | 0.00 | 0.00 | 0.00 | 69 | 1012.0 |
| 20260507064008 | 30 | 190 | 0.0 | 2.6 | 0.00 | 0.00 | 0.00 | 68 | 1012.0 |
| 20260507063507 | 30 | 190 | 0.9 | 2.6 | 0.00 | 0.00 | 0.00 | 67 | 1012.1 |
| 20260507063007 | 31 | 190 | 0.0 | 2.6 | 0.00 | 0.00 | 0.00 | 67 | 1012.1 |
| 20260507062504 | 31 | 190 | 0.9 | 2.6 | 0.00 | 0.00 | 0.00 | 67 | 1012.1 |
| 20260507062103 | 31 | 190 | 0.0 | 1.7 | 0.00 | 0.00 | 0.00 | 66 | 1012.2 |
| 20260507061502 | 32 | 190 | 0.0 | 1.7 | 0.00 | 0.00 | 0.00 | 66 | 1012.2 |
| 20260507061003 | 32 | 190 | 0.0 | 1.7 | 0.00 | 0.00 | 0.00 | 66 | 1012.2 |
| 20260507060601 | 32 | 190 | 0.0 | 3.5 | 0.00 | 0.00 | 0.00 | 66 | 1012.2 |
| 20260507060101 | 33 | 190 | 0.9 | 3.5 | 0.00 | 0.00 | 0.00 | 65 | 1012.2 |
| 20260507055601 | 33 | 190 | 0.9 | 2.6 | 0.00 | 0.00 | 0.00 | 64 | 1012.2 |
| 20260507055101 | 33 | 193 | 0.9 | 2.6 | 0.00 | 0.00 | 0.00 | 64 | 1012.1 |
| 20260507054556 | 34 | 194 | 0.9 | 2.6 | 0.00 | 0.00 | 0.00 | 63 | 1012.2 |
| 20260507054054 | 34 | 196 | 0.0 | 1.7 | 0.00 | 0.00 | 0.00 | 63 | 1012.2 |
| 20260507053553 | 34 | 196 | 0.0 | 3.5 | 0.00 | 0.00 | 0.00 | 63 | 1012.3 |
| 20260507053102 | 35 | 196 | 0.9 | 3.5 | 0.00 | 0.00 | 0.00 | 62 | 1012.4 |
| 20260507052551 | 35 | 187 | 0.0 | 2.6 | 0.00 | 0.00 | 0.00 | 62 | 1012.3 |
| 20260507052051 | 35 | 188 | 0.0 | 2.6 | 0.00 | 0.00 | 0.00 | 61 | 1012.3 |
| 20260507051550 | 35 | 188 | 0.0 | 2.6 | 0.00 | 0.00 | 0.00 | 61 | 1012.5 |
| 20260507051049 | 36 | 188 | 1.7 | 4.3 | 0.00 | 0.00 | 0.00 | 61 | 1012.5 |
| 20260507050548 | 36 | 188 | 0.9 | 5.2 | 0.00 | 0.00 | 0.00 | 61 | 1012.5 |
| 20260507050047 | 36 | 207 | 2.6 | 6.1 | 0.00 | 0.00 | 0.00 | 61 | 1012.5 |
| 20260507045547 | 36 | 194 | 2.6 | 6.1 | 0.00 | 0.00 | 0.00 | 61 | 1012.4 |
| 20260507045047 | 36 | 191 | 1.7 | 4.3 | 0.00 | 0.00 | 0.00 | 60 | 1012.5 |
| 20260507044558 | 36 | 199 | 2.6 | 5.2 | 0.00 | 0.00 | 0.00 | 60 | 1012.6 |
| 20260507044045 | 36 | 209 | 3.5 | 5.2 | 0.00 | 0.00 | 0.00 | 61 | 1012.7 |
| 20260507043544 | 36 | 202 | 1.7 | 5.2 | 0.00 | 0.00 | 0.00 | 61 | 1012.8 |
| 20260507043048 | 36 | 177 | 0.9 | 3.5 | 0.00 | 0.00 | 0.00 | 60 | 1012.7 |
| 20260507042545 | 36 | 177 | 0.9 | 3.5 | 0.00 | 0.00 | 0.00 | 60 | 1012.7 |
| 20260507042046 | 36 | 178 | 0.9 | 3.5 | 0.00 | 0.00 | 0.00 | 59 | 1012.7 |
| 20260507041547 | 37 | 182 | 1.7 | 3.5 | 0.00 | 0.00 | 0.00 | 59 | 1012.8 |
| 20260507041045 | 37 | 194 | 0.9 | 3.5 | 0.00 | 0.00 | 0.00 | 59 | 1012.9 |
| 20260507040542 | 37 | 195 | 0.9 | 3.5 | 0.00 | 0.00 | 0.00 | 58 | 1013.0 |
| 20260507040045 | 37 | 190 | 0.9 | 4.3 | 0.00 | 0.00 | 0.00 | 57 | 1013.1 |
| 20260507035541 | 38 | 188 | 1.7 | 4.3 | 0.00 | 0.00 | 0.00 | 57 | 1013.1 |
| 20260507035041 | 38 | 180 | 0.9 | 4.3 | 0.00 | 0.00 | 0.00 | 57 | 1013.2 |
| 20260507034544 | 38 | 175 | 1.7 | 4.3 | 0.00 | 0.00 | 0.00 | 57 | 1013.2 |
| 20260507034039 | 38 | 175 | 0.0 | 3.5 | 0.00 | 0.00 | 0.00 | 57 | 1013.3 |
| 20260507033539 | 38 | 171 | 0.9 | 4.3 | 0.00 | 0.00 | 0.00 | 57 | 1013.3 |
| 20260507033050 | 38 | 184 | 0.9 | 4.3 | 0.00 | 0.00 | 0.00 | 57 | 1013.3 |
| 20260507032539 | 37 | 179 | 0.9 | 5.2 | 0.00 | 0.00 | 0.00 | 57 | 1013.4 |
| 20260507032041 | 38 | 191 | 0.9 | 4.3 | 0.00 | 0.00 | 0.00 | 57 | 1013.4 |
| 20260507031553 | 38 | 190 | 0.0 | 4.3 | 0.00 | 0.00 | 0.00 | 56 | 1013.4 |
| 20260507031041 | 38 | 177 | 1.7 | 4.3 | 0.00 | 0.00 | 0.00 | 56 | 1013.5 |
| 20260507030538 | 38 | 192 | 0.9 | 2.6 | 0.00 | 0.00 | 0.00 | 56 | 1013.5 |
| 20260507030051 | 38 | 193 | 0.0 | 3.5 | 0.00 | 0.00 | 0.00 | 56 | 1013.5 |
| 20260507025536 | 38 | 194 | 0.9 | 3.5 | 0.00 | 0.00 | 0.00 | 56 | 1013.6 |
| 20260507025036 | 39 | 192 | 0.9 | 3.5 | 0.00 | 0.00 | 0.00 | 55 | 1013.6 |
| 20260507024555 | 39 | 193 | 0.9 | 3.5 | 0.00 | 0.00 | 0.00 | 55 | 1013.6 |
| 20260507024035 | 39 | 208 | 0.9 | 3.5 | 0.00 | 0.00 | 0.00 | 55 | 1013.7 |
| 20260507023535 | 40 | 215 | 0.9 | 2.6 | 0.00 | 0.00 | 0.00 | 54 | 1013.6 |
| 20260507023035 | 40 | 218 | 0.9 | 2.6 | 0.00 | 0.00 | 0.00 | 54 | 1013.6 |
| 20260507022535 | 40 | 219 | 0.0 | 2.6 | 0.00 | 0.00 | 0.00 | 54 | 1013.6 |
| 20260507022036 | 41 | 219 | 0.0 | 2.6 | 0.00 | 0.00 | 0.00 | 54 | 1013.6 |
| 20260507021537 | 41 | 221 | 0.0 | 2.6 | 0.00 | 0.00 | 0.00 | 54 | 1013.6 |
| 20260507021035 | 41 | 222 | 0.9 | 2.6 | 0.00 | 0.00 | 0.00 | 53 | 1013.7 |
| 20260507020536 | 41 | 223 | 0.9 | 2.6 | 0.00 | 0.00 | 0.00 | 52 | 1013.7 |
| 20260507020047 | 42 | 223 | 0.9 | 2.6 | 0.00 | 0.00 | 0.00 | 52 | 1013.6 |
| 20260507015535 | 42 | 223 | 0.0 | 2.6 | 0.00 | 0.00 | 0.00 | 52 | 1013.7 |
| 20260507015039 | 42 | 223 | 0.0 | 4.3 | 0.00 | 0.00 | 0.00 | 52 | 1013.7 |
| 20260507014543 | 42 | 223 | 1.7 | 4.3 | 0.00 | 0.00 | 0.00 | 51 | 1013.7 |
| 20260507014034 | 43 | 234 | 0.0 | 1.7 | 0.00 | 0.00 | 0.00 | 51 | 1013.7 |
| 20260507013537 | 43 | 234 | 0.0 | 2.6 | 0.00 | 0.00 | 0.00 | 50 | 1013.6 |
| 20260507013039 | 43 | 234 | 0.9 | 2.6 | 0.00 | 0.00 | 0.00 | 50 | 1013.6 |
| 20260507012534 | 43 | 235 | 0.0 | 1.7 | 0.00 | 0.00 | 0.00 | 50 | 1013.6 |
| 20260507012035 | 43 | 235 | 0.0 | 3.5 | 0.00 | 0.00 | 0.00 | 49 | 1013.7 |
| 20260507011537 | 43 | 234 | 0.9 | 3.5 | 0.00 | 0.00 | 0.00 | 49 | 1013.7 |
| 20260507011033 | 43 | 240 | 0.9 | 5.2 | 0.00 | 0.00 | 0.00 | 49 | 1013.6 |
| 20260507010533 | 44 | 237 | 1.7 | 5.2 | 0.00 | 0.00 | 0.00 | 49 | 1013.7 |
| 20260507010040 | 44 | 248 | 0.9 | 3.5 | 0.00 | 0.00 | 0.00 | 49 | 1013.7 |
| 20260507005532 | 44 | 257 | 0.9 | 5.2 | 0.00 | 0.00 | 0.00 | 49 | 1013.7 |
| 20260507005034 | 44 | 260 | 1.7 | 5.2 | 0.00 | 0.00 | 0.00 | 48 | 1013.8 |
| 20260507004533 | 44 | 250 | 0.9 | 4.3 | 0.00 | 0.00 | 0.00 | 48 | 1013.7 |
| 20260507004031 | 44 | 223 | 0.9 | 6.1 | 0.00 | 0.00 | 0.00 | 49 | 1013.8 |
| 20260507003531 | 44 | 254 | 1.7 | 7.0 | 0.00 | 0.00 | 0.00 | 49 | 1013.8 |
| 20260507003030 | 44 | 264 | 3.5 | 7.0 | 0.00 | 0.00 | 0.00 | 48 | 1013.9 |
| 20260507002529 | 45 | 273 | 2.6 | 7.0 | 0.00 | 0.00 | 0.00 | 48 | 1013.9 |
| 20260507002029 | 45 | 213 | 1.7 | 4.3 | 0.00 | 0.00 | 0.00 | 48 | 1014.0 |
| 20260507001534 | 44 | 228 | 1.7 | 4.3 | 0.00 | 0.00 | 0.00 | 48 | 1014.0 |
| 20260507001028 | 44 | 213 | 1.7 | 6.1 | 0.00 | 0.00 | 0.00 | 48 | 1014.1 |
| 20260507000527 | 44 | 268 | 1.7 | 7.0 | 0.00 | 0.00 | 0.00 | 48 | 1014.1 |
| 20260507000027 | 44 | 240 | 2.6 | 7.0 | 0.00 | 0.00 | 0.00 | 48 | 1014.2 |
| 20260506235527 | 45 | 254 | 0.0 | 7.0 | 0.00 | 0.00 | 0.00 | 48 | 1014.3 |
| 20260506235026 | 45 | 261 | 1.7 | 7.0 | 0.00 | 0.00 | 0.00 | 49 | 1014.3 |
| 20260506234526 | 45 | 240 | 2.6 | 7.0 | 0.00 | 0.00 | 0.00 | 49 | 1014.3 |
| 20260506234025 | 44 | 248 | 1.7 | 6.1 | 0.00 | 0.00 | 0.00 | 49 | 1014.3 |
| 20260506233524 | 44 | 300 | 1.7 | 7.0 | 0.00 | 0.00 | 0.00 | 49 | 1014.3 |
| 20260506233025 | 44 | 310 | 1.7 | 7.8 | 0.00 | 0.00 | 0.00 | 49 | 1014.3 |
| 20260506232524 | 44 | 270 | 3.5 | 8.7 | 0.00 | 0.00 | 0.00 | 49 | 1014.4 |
| 20260506232023 | 44 | 248 | 3.5 | 8.7 | 0.00 | 0.00 | 0.00 | 48 | 1014.5 |
| 20260506231523 | 45 | 234 | 1.7 | 7.8 | 0.00 | 0.00 | 0.00 | 49 | 1014.6 |
| 20260506231022 | 44 | 273 | 3.5 | 7.8 | 0.00 | 0.00 | 0.00 | 49 | 1014.6 |
| 20260506230522 | 44 | 300 | 0.9 | 7.0 | 0.00 | 0.00 | 0.00 | 49 | 1014.6 |
| 20260506230022 | 44 | 305 | 2.6 | 8.7 | 0.00 | 0.00 | 0.00 | 50 | 1014.6 |
| 20260506225521 | 44 | 98 | 1.7 | 8.7 | 0.00 | 0.00 | 0.00 | 50 | 1014.7 |
| 20260506225025 | 44 | 269 | 2.6 | 7.8 | 0.00 | 0.00 | 0.00 | 50 | 1014.7 |
| 20260506224521 | 44 | 252 | 3.5 | 8.7 | 0.00 | 0.00 | 0.00 | 50 | 1014.7 |
| 20260506224019 | 44 | 262 | 2.6 | 8.7 | 0.00 | 0.00 | 0.00 | 50 | 1014.7 |
| 20260506223518 | 44 | 263 | 3.5 | 7.8 | 0.00 | 0.00 | 0.00 | 50 | 1014.8 |
| 20260506223019 | 44 | 332 | 4.3 | 7.8 | 0.00 | 0.00 | 0.00 | 51 | 1014.8 |
| 20260506222518 | 44 | 295 | 3.5 | 9.6 | 0.00 | 0.00 | 0.00 | 50 | 1014.9 |
| 20260506222018 | 44 | 334 | 4.3 | 9.6 | 0.00 | 0.00 | 0.00 | 50 | 1014.8 |
| 20260506221517 | 44 | 297 | 3.5 | 8.7 | 0.00 | 0.00 | 0.00 | 51 | 1014.9 |
| 20260506221017 | 44 | 284 | 3.5 | 10.4 | 0.00 | 0.00 | 0.00 | 52 | 1014.8 |
| 20260506220517 | 44 | 292 | 6.1 | 10.4 | 0.00 | 0.00 | 0.00 | 52 | 1014.9 |
| 20260506220017 | 43 | 342 | 1.7 | 7.8 | 0.00 | 0.00 | 0.00 | 53 | 1014.9 |
| 20260506215516 | 43 | 333 | 2.6 | 7.8 | 0.00 | 0.00 | 0.00 | 51 | 1014.9 |
| 20260506215015 | 44 | 297 | 3.5 | 7.0 | 0.00 | 0.00 | 0.00 | 52 | 1015.0 |
| 20260506214515 | 43 | 272 | 0.0 | 7.0 | 0.00 | 0.00 | 0.00 | 52 | 1015.0 |
| 20260506214015 | 43 | 303 | 2.6 | 8.7 | 0.00 | 0.00 | 0.00 | 52 | 1015.0 |
| 20260506213517 | 43 | 248 | 3.5 | 8.7 | 0.00 | 0.00 | 0.00 | 52 | 1015.1 |
| 20260506213011 | 43 | 246 | 2.6 | 7.0 | 0.00 | 0.00 | 0.00 | 52 | 1015.2 |
| 20260506212511 | 43 | 267 | 4.3 | 7.0 | 0.00 | 0.00 | 0.00 | 52 | 1015.2 |
| 20260506212013 | 43 | 298 | 1.7 | 7.0 | 0.00 | 0.00 | 0.00 | 53 | 1015.3 |
| 20260506211516 | 43 | 269 | 2.6 | 11.3 | 0.00 | 0.00 | 0.00 | 52 | 1015.3 |
| 20260506211010 | 43 | 267 | 3.5 | 11.3 | 0.00 | 0.00 | 0.00 | 52 | 1015.4 |
| 20260506210509 | 43 | 322 | 4.3 | 7.8 | 0.00 | 0.00 | 0.00 | 52 | 1015.4 |
| 20260506210015 | 43 | 265 | 2.6 | 8.7 | 0.00 | 0.00 | 0.00 | 53 | 1015.4 |
| 20260506205508 | 43 | 279 | 3.5 | 9.6 | 0.00 | 0.00 | 0.00 | 53 | 1015.5 |
| 20260506205008 | 43 | 275 | 1.7 | 7.0 | 0.00 | 0.00 | 0.00 | 53 | 1015.5 |
| 20260506204509 | 43 | 273 | 3.5 | 7.8 | 0.00 | 0.00 | 0.00 | 53 | 1015.5 |
| 20260506204007 | 43 | 287 | 3.5 | 8.7 | 0.00 | 0.00 | 0.00 | 54 | 1015.5 |
| 20260506203508 | 42 | 275 | 2.6 | 9.6 | 0.00 | 0.00 | 0.00 | 53 | 1015.5 |
| 20260506203008 | 43 | 275 | 5.2 | 9.6 | 0.00 | 0.00 | 0.00 | 54 | 1015.6 |
| 20260506202508 | 43 | 261 | 2.6 | 9.6 | 0.00 | 0.00 | 0.00 | 53 | 1015.6 |
| 20260506202008 | 43 | 280 | 4.3 | 9.6 | 0.00 | 0.00 | 0.00 | 52 | 1015.7 |
| 20260506201509 | 43 | 286 | 1.7 | 7.0 | 0.00 | 0.00 | 0.00 | 52 | 1015.6 |
| 20260506201007 | 43 | 251 | 1.7 | 7.0 | 0.00 | 0.00 | 0.00 | 52 | 1015.7 |
| 20260506200507 | 43 | 255 | 2.6 | 10.4 | 0.00 | 0.00 | 0.00 | 53 | 1015.8 |
| 20260506200006 | 43 | 273 | 5.2 | 10.4 | 0.00 | 0.00 | 0.00 | 54 | 1015.7 |
| 20260506195508 | 43 | 284 | 2.6 | 7.8 | 0.00 | 0.00 | 0.00 | 53 | 1015.7 |
| 20260506195005 | 43 | 276 | 3.5 | 8.7 | 0.00 | 0.00 | 0.00 | 53 | 1015.7 |
| 20260506194506 | 43 | 281 | 4.3 | 9.6 | 0.00 | 0.00 | 0.00 | 53 | 1015.9 |
| 20260506194006 | 42 | 292 | 5.2 | 9.6 | 0.00 | 0.00 | 0.00 | 53 | 1016.0 |
| 20260506193505 | 42 | 277 | 1.7 | 10.4 | 0.00 | 0.00 | 0.00 | 54 | 1016.0 |
| 20260506193004 | 42 | 223 | 4.3 | 10.4 | 0.00 | 0.00 | 0.00 | 54 | 1016.1 |
| 20260506192504 | 42 | 274 | 4.3 | 8.7 | 0.00 | 0.00 | 0.00 | 54 | 1016.1 |
| 20260506192006 | 42 | 294 | 2.6 | 9.6 | 0.00 | 0.00 | 0.00 | 53 | 1016.1 |
| 20260506191504 | 42 | 273 | 4.3 | 9.6 | 0.00 | 0.00 | 0.00 | 53 | 1016.2 |
| 20260506191004 | 42 | 292 | 2.6 | 6.1 | 0.00 | 0.00 | 0.00 | 53 | 1016.1 |
| 20260506190503 | 42 | 302 | 2.6 | 7.8 | 0.00 | 0.00 | 0.00 | 55 | 1016.1 |
| 20260506190004 | 42 | 333 | 2.6 | 7.8 | 0.00 | 0.00 | 0.00 | 54 | 1016.2 |
| 20260506185502 | 42 | 282 | 3.5 | 7.8 | 0.00 | 0.00 | 0.00 | 54 | 1016.3 |
| 20260506185003 | 42 | 304 | 3.5 | 10.4 | 0.00 | 0.00 | 0.00 | 54 | 1016.3 |
| 20260506184503 | 42 | 286 | 5.2 | 10.4 | 0.00 | 0.00 | 0.00 | 53 | 1016.1 |
| 20260506184002 | 42 | 271 | 5.2 | 9.6 | 0.00 | 0.00 | 0.00 | 54 | 1016.2 |
| 20260506183503 | 42 | 265 | 3.5 | 8.7 | 0.00 | 0.00 | 0.00 | 53 | 1016.3 |
| 20260506183002 | 42 | 324 | 3.5 | 8.7 | 0.00 | 0.00 | 0.00 | 53 | 1016.2 |
| 20260506182501 | 42 | 355 | 4.3 | 9.6 | 0.00 | 0.00 | 0.00 | 53 | 1016.3 |
| 20260506182001 | 42 | 270 | 3.5 | 9.6 | 0.00 | 0.00 | 0.00 | 53 | 1016.4 |
| 20260506181502 | 42 | 248 | 3.5 | 9.6 | 0.00 | 0.00 | 0.00 | 53 | 1016.3 |
| 20260506181001 | 42 | 248 | 3.5 | 8.7 | 0.00 | 0.00 | 0.00 | 53 | 1016.3 |
| 20260506180501 | 42 | 260 | 3.5 | 8.7 | 0.00 | 0.00 | 0.00 | 53 | 1016.3 |
| 20260506180001 | 42 | 284 | 4.3 | 8.7 | 0.00 | 0.00 | 0.00 | 54 | 1016.4 |
| 20260506175501 | 42 | 281 | 0.9 | 9.6 | 0.00 | 0.00 | 0.00 | 53 | 1016.4 |
| 20260506175001 | 42 | 277 | 3.5 | 10.4 | 0.00 | 0.00 | 0.00 | 54 | 1016.5 |
| 20260506174501 | 42 | 323 | 4.3 | 10.4 | 0.00 | 0.00 | 0.00 | 54 | 1016.4 |
| 20260506174102 | 42 | 290 | 3.5 | 7.8 | 0.00 | 0.00 | 0.00 | 53 | 1016.5 |
| 20260506173600 | 42 | 268 | 2.6 | 7.8 | 0.00 | 0.00 | 0.00 | 54 | 1016.6 |
| 20260506173130 | 42 | 355 | 3.5 | 7.8 | 0.00 | 0.00 | 0.00 | 54 | 1016.6 |
| 20260506172600 | 41 | 299 | 2.6 | 7.8 | 0.00 | 0.00 | 0.00 | 54 | 1016.5 |
| 20260506172104 | 41 | 321 | 2.6 | 9.6 | 0.00 | 0.00 | 0.00 | 54 | 1016.6 |
| 20260506171620 | 41 | 273 | 5.2 | 9.6 | 0.00 | 0.00 | 0.00 | 54 | 1016.5 |
| 20260506171100 | 41 | 301 | 3.5 | 8.7 | 0.00 | 0.00 | 0.00 | 54 | 1016.7 |
| 20260506170559 | 41 | 338 | 1.7 | 10.4 | 0.00 | 0.00 | 0.00 | 54 | 1016.7 |
| 20260506170100 | 41 | 281 | 7.0 | 10.4 | 0.00 | 0.00 | 0.00 | 53 | 1016.7 |
| 20260506165559 | 42 | 279 | 3.5 | 10.4 | 0.00 | 0.00 | 0.00 | 53 | 1016.7 |
| 20260506165059 | 42 | 321 | 2.6 | 8.7 | 0.00 | 0.00 | 0.00 | 53 | 1016.8 |
| 20260506164607 | 42 | 304 | 2.6 | 8.7 | 0.00 | 0.00 | 0.00 | 53 | 1016.8 |
| 20260506164059 | 42 | 339 | 2.6 | 8.7 | 0.00 | 0.00 | 0.00 | 52 | 1016.8 |
| 20260506163558 | 43 | 298 | 1.7 | 8.7 | 0.00 | 0.00 | 0.00 | 52 | 1016.8 |
| 20260506163106 | 43 | 319 | 1.7 | 7.0 | 0.00 | 0.00 | 0.00 | 53 | 1016.9 |
| 20260506162555 | 42 | 336 | 2.6 | 9.6 | 0.00 | 0.00 | 0.00 | 55 | 1016.8 |
| 20260506162055 | 42 | 331 | 5.2 | 9.6 | 0.00 | 0.00 | 0.00 | 54 | 1016.9 |
| 20260506161629 | 41 | 312 | 2.6 | 10.4 | 0.00 | 0.00 | 0.00 | 54 | 1016.9 |
| 20260506161054 | 42 | 334 | 4.3 | 10.4 | 0.00 | 0.00 | 0.00 | 54 | 1017.0 |
| 20260506160553 | 41 | 355 | 4.3 | 11.3 | 0.00 | 0.00 | 0.00 | 54 | 1017.0 |
| 20260506160056 | 41 | 315 | 3.5 | 11.3 | 0.00 | 0.00 | 0.00 | 54 | 1017.0 |
| 20260506155551 | 41 | 277 | 3.5 | 11.3 | 0.00 | 0.00 | 0.00 | 55 | 1017.0 |
| 20260506155050 | 40 | 343 | 4.3 | 12.2 | 0.00 | 0.00 | 0.00 | 55 | 1017.1 |
| 20260506154552 | 40 | 269 | 3.5 | 12.2 | 0.00 | 0.00 | 0.00 | 56 | 1017.0 |
| 20260506154049 | 40 | 292 | 2.6 | 11.3 | 0.00 | 0.00 | 0.00 | 57 | 1017.0 |
| 20260506153546 | 39 | 267 | 2.6 | 10.4 | 0.00 | 0.00 | 0.00 | 57 | 1017.1 |
| 20260506153051 | 39 | 308 | 4.3 | 11.3 | 0.00 | 0.00 | 0.00 | 57 | 1017.1 |
| 20260506152547 | 39 | 246 | 6.1 | 11.3 | 0.00 | 0.00 | 0.00 | 57 | 1017.1 |
| 20260506152047 | 39 | 278 | 6.1 | 11.3 | 0.00 | 0.00 | 0.00 | 57 | 1017.2 |
| 20260506151549 | 39 | 5 | 4.3 | 12.2 | 0.00 | 0.00 | 0.00 | 57 | 1017.2 |
| 20260506151046 | 39 | 273 | 2.6 | 8.7 | 0.00 | 0.00 | 0.00 | 58 | 1017.2 |
| 20260506150548 | 39 | 283 | 2.6 | 11.3 | 0.00 | 0.00 | 0.00 | 57 | 1017.2 |
| 20260506150046 | 39 | 274 | 3.5 | 11.3 | 0.00 | 0.00 | 0.00 | 58 | 1017.2 |
| 20260506145546 | 39 | 268 | 5.2 | 8.7 | 0.00 | 0.00 | 0.00 | 58 | 1017.2 |
| 20260506145046 | 39 | 273 | 2.6 | 14.8 | 0.00 | 0.00 | 0.00 | 57 | 1017.2 |
| 20260506144546 | 39 | 285 | 5.2 | 14.8 | 0.00 | 0.00 | 0.00 | 57 | 1017.2 |
| 20260506144045 | 39 | 269 | 4.3 | 11.3 | 0.00 | 0.00 | 0.00 | 58 | 1017.2 |
| 20260506143545 | 39 | 269 | 4.3 | 13.0 | 0.00 | 0.00 | 0.00 | 57 | 1017.2 |
| 20260506143045 | 40 | 266 | 6.1 | 13.0 | 0.00 | 0.00 | 0.00 | 57 | 1017.2 |
| 20260506142544 | 40 | 294 | 3.5 | 9.6 | 0.00 | 0.00 | 0.00 | 58 | 1017.2 |
| 20260506142042 | 39 | 274 | 6.1 | 10.4 | 0.00 | 0.00 | 0.00 | 61 | 1017.2 |
| 20260506141541 | 39 | 321 | 4.3 | 10.4 | 0.00 | 0.00 | 0.00 | 60 | 1017.2 |
| 20260506141040 | 39 | 321 | 3.5 | 10.4 | 0.00 | 0.00 | 0.00 | 62 | 1017.2 |
| 20260506140542 | 39 | 346 | 3.5 | 10.4 | 0.00 | 0.00 | 0.00 | 61 | 1017.3 |
| 20260506140039 | 38 | 294 | 2.6 | 8.7 | 0.00 | 0.00 | 0.00 | 62 | 1017.3 |
| 20260506135537 | 38 | 335 | 4.3 | 10.4 | 0.00 | 0.00 | 0.00 | 62 | 1017.3 |
| 20260506135036 | 38 | 323 | 6.1 | 10.4 | 0.00 | 0.00 | 0.00 | 63 | 1017.3 |
| 20260506134535 | 37 | 280 | 2.6 | 7.8 | 0.00 | 0.00 | 0.00 | 63 | 1017.3 |
| 20260506134033 | 37 | 272 | 2.6 | 7.8 | 0.00 | 0.00 | 0.00 | 63 | 1017.3 |
| 20260506133532 | 37 | 288 | 2.6 | 7.8 | 0.00 | 0.00 | 0.00 | 63 | 1017.3 |
| 20260506133031 | 37 | 333 | 2.6 | 7.0 | 0.00 | 0.00 | 0.00 | 65 | 1017.3 |
| 20260506132533 | 37 | 310 | 1.7 | 7.0 | 0.00 | 0.00 | 0.00 | 65 | 1017.3 |
| 20260506132034 | 36 | 273 | 1.7 | 6.1 | 0.00 | 0.00 | 0.00 | 65 | 1017.3 |
| 20260506131537 | 36 | 289 | 1.7 | 7.0 | 0.00 | 0.00 | 0.00 | 65 | 1017.2 |
| 20260506131029 | 36 | 270 | 1.7 | 7.0 | 0.00 | 0.00 | 0.00 | 65 | 1017.2 |
| 20260506130527 | 36 | 297 | 2.6 | 7.0 | 0.00 | 0.00 | 0.00 | 65 | 1017.2 |
| 20260506130025 | 36 | 266 | 1.7 | 7.0 | 0.00 | 0.00 | 0.00 | 65 | 1017.2 |
| 20260506125530 | 36 | 330 | 2.6 | 8.7 | 0.00 | 0.00 | 0.00 | 65 | 1017.2 |
| 20260506125026 | 36 | 327 | 0.9 | 8.7 | 0.00 | 0.00 | 0.00 | 65 | 1017.2 |
| 20260506124523 | 36 | 306 | 2.6 | 8.7 | 0.00 | 0.00 | 0.00 | 66 | 1017.1 |
| 20260506124022 | 35 | 301 | 1.7 | 4.3 | 0.00 | 0.00 | 0.00 | 66 | 1017.1 |
| 20260506123520 | 35 | 309 | 1.7 | 3.5 | 0.00 | 0.00 | 0.00 | 66 | 1017.1 |
| 20260506123019 | 35 | 309 | 0.9 | 3.5 | 0.00 | 0.00 | 0.00 | 66 | 1017.1 |
| 20260506122519 | 35 | 317 | 0.9 | 3.5 | 0.00 | 0.00 | 0.00 | 66 | 1017.1 |
| 20260506122018 | 35 | 302 | 1.7 | 7.0 | 0.00 | 0.00 | 0.00 | 66 | 1017.0 |
| 20260506121517 | 35 | 296 | 0.9 | 4.3 | 0.00 | 0.00 | 0.00 | 66 | 1016.9 |
| 20260506121016 | 35 | 300 | 1.7 | 3.5 | 0.00 | 0.00 | 0.00 | 66 | 1016.9 |
| 20260506120515 | 35 | 296 | 0.9 | 3.5 | 0.00 | 0.00 | 0.00 | 65 | 1016.8 |
| 20260506120018 | 35 | 288 | 0.9 | 3.5 | 0.00 | 0.00 | 0.00 | 65 | 1016.7 |
| 20260506115518 | 35 | 284 | 0.9 | 3.5 | 0.00 | 0.00 | 0.00 | 65 | 1016.7 |
| 20260506115013 | 35 | 296 | 0.9 | 3.5 | 0.00 | 0.00 | 0.00 | 65 | 1016.6 |
| 20260506114513 | 35 | 308 | 0.9 | 2.6 | 0.00 | 0.00 | 0.00 | 65 | 1016.5 |
| 20260506114012 | 35 | 310 | 0.0 | 2.6 | 0.00 | 0.00 | 0.00 | 64 | 1016.6 |
| 20260506113511 | 35 | 310 | 0.9 | 3.5 | 0.00 | 0.00 | 0.00 | 64 | 1016.6 |
| 20260506113010 | 35 | 311 | 0.9 | 4.3 | 0.00 | 0.00 | 0.00 | 64 | 1016.6 |
| 20260506112510 | 35 | 315 | 1.7 | 4.3 | 0.00 | 0.00 | 0.00 | 63 | 1016.5 |
| 20260506112009 | 35 | 329 | 1.7 | 5.2 | 0.00 | 0.00 | 0.00 | 63 | 1016.4 |
| 20260506111509 | 35 | 327 | 1.7 | 5.2 | 0.00 | 0.00 | 0.00 | 63 | 1016.5 |
| 20260506111009 | 35 | 338 | 1.7 | 7.0 | 0.00 | 0.00 | 0.00 | 64 | 1016.4 |
| 20260506110510 | 35 | 327 | 2.6 | 7.8 | 0.00 | 0.00 | 0.00 | 64 | 1016.3 |
| 20260506110008 | 35 | 325 | 4.3 | 7.8 | 0.00 | 0.00 | 0.00 | 64 | 1016.3 |
| 20260506105507 | 35 | 340 | 4.3 | 8.7 | 0.00 | 0.00 | 0.00 | 64 | 1016.3 |
| 20260506105009 | 35 | 330 | 5.2 | 8.7 | 0.00 | 0.00 | 0.00 | 64 | 1016.2 |
| 20260506104506 | 35 | 333 | 3.5 | 10.4 | 0.00 | 0.00 | 0.00 | 65 | 1016.2 |
| 20260506104005 | 35 | 338 | 4.3 | 10.4 | 0.00 | 0.00 | 0.00 | 65 | 1016.2 |
| 20260506103505 | 35 | 320 | 2.6 | 7.0 | 0.00 | 0.00 | 0.00 | 66 | 1016.2 |
| 20260506103004 | 35 | 334 | 2.6 | 7.0 | 0.00 | 0.00 | 0.00 | 66 | 1016.2 |
| 20260506102503 | 35 | 304 | 0.9 | 7.0 | 0.00 | 0.00 | 0.00 | 66 | 1016.2 |
| 20260506102002 | 35 | 292 | 2.6 | 5.2 | 0.00 | 0.00 | 0.00 | 66 | 1016.2 |
| 20260506101506 | 35 | 329 | 2.6 | 5.2 | 0.00 | 0.00 | 0.00 | 66 | 1016.2 |
| 20260506101002 | 35 | 37 | 1.7 | 6.1 | 0.00 | 0.00 | 0.00 | 66 | 1016.1 |
| 20260506100502 | 35 | 318 | 1.7 | 9.6 | 0.00 | 0.00 | 0.00 | 66 | 1016.2 |
| 20260506100001 | 35 | 355 | 4.3 | 9.6 | 0.00 | 0.00 | 0.00 | 65 | 1016.1 |
| 20260506095603 | 35 | 320 | 4.3 | 9.6 | 0.00 | 0.00 | 0.00 | 65 | 1016.2 |
| 20260506095103 | 35 | 327 | 4.3 | 8.7 | 0.00 | 0.00 | 0.00 | 65 | 1016.2 |